Regional Weather Roundup
Issued by NWS

Home | Current Version | Previous Version | Text Only | Print | Product List | Glossary Off
Versions: 1 2 3 4 5 6 7 8 9 10 11 12 13 14 15 16 17 18 19 20 21 22 23 24 25 26 27 28 29 30 31 32 33 34 35 36 37 38 39 40 41 42 43 44 45 46 47 48 49 50

985
ASUS43 KFSD 060010
RWRSD

WEATHER ROUNDUP FOR SOUTH DAKOTA
NATIONAL WEATHER SERVICE SIOUX FALLS SD
600 PM CST FRI FEB 05 2016

NOTE: "FAIR" INDICATES FEW OR NO CLOUDS BELOW 12,000 FEET WITH NO
SIGNIFICANT WEATHER AND/OR OBSTRUCTIONS TO VISIBILITY.


SDZ001>005-009-010-012>017-060100-
NORTHWEST AND NORTH CENTRAL SOUTH DAKOTA

CITY           SKY/WX    TMP DP  RH WIND       PRES   REMARKS
BUFFALO          N/A     37  21  52 W12       30.07F
FAITH            N/A     34  22  61 W8        30.14F WCI  27
MOBRIDGE       CLEAR     35  22  58 CALM      30.12F
$$

SDZ012>016-024>037-041>051-057-063-072>074-060100-
SOUTHWEST AND SOUTH CENTRAL SOUTH DAKOTA

CITY           SKY/WX    TMP DP  RH WIND       PRES   REMARKS
RAPID CTY ARPT CLEAR     33  23  66 N8        30.17F WCI  26
PIERRE         CLEAR     34  25  69 W7        30.18S WCI  28
CUSTER         CLEAR     29  12  49 NW14G22   30.15F WCI  18
ELLSWORTH AFB  CLEAR     38  22  52 N9        30.16F
PHILIP         CLEAR     34  25  69 W7        30.19F WCI  28
PINE RIDGE     CLEAR     36  25  64 W9        30.21F
SPEARFISH      FAIR      34  18  51 W8        30.17S WCI  27
WINNER         FAIR      34  27  75 NW9       30.21S WCI  27
$$

SDZ004>011-016>023-039-040-060100-
NORTHEAST SOUTH DAKOTA

CITY           SKY/WX    TMP DP  RH WIND       PRES   REMARKS
ABERDEEN       CLEAR     33  20  58 NW7       30.16F WCI  27
WATERTOWN      CLEAR     26  22  84 W5        30.14S WCI  20
BROOKINGS      MOCLDY    25  23  92 W3        30.16R
SISSETON         N/A     28  24  85 CALM      30.14S
$$

SDZ017-020-022-023-036>040-048>070-060100-
SOUTHEAST SOUTH DAKOTA

CITY           SKY/WX    TMP DP  RH WIND       PRES   REMARKS
SIOUX FALLS    CLOUDY    29  27  92 CALM      30.18R
HURON          CLEAR     31  29  92 W6        30.19R WCI  25
CHAMBERLAIN    CLEAR     32  29  88 NW7       30.21R WCI  26
MITCHELL       CLOUDY    33  30  88 N5        30.21R WCI  29
YANKTON        CLOUDY    32  28  86 NW9       30.20R WCI  24
$$

ABBREVIATIONS USED IN REMARKS
   TC - TEMPERATURE IN CELSIUS
  WCI - WIND CHILL INDEX
   HX - HEAT INDEX
  VSB - VISIBILITY





USA.gov is the U.S. government's official web portal to all federal, state and local government web resources and services.